Home > Weather > Compton > Past weeks

Flag for USA Past Weather in Compton, California, USA — Yesterday and Last 2 Weeks

Now
74 °F

Sunny.


Feels Like: 76 °F
Forecast: 67 / 79 °F
Wind: 5 mph from South

Location: Hawthorne Municipal Airport

Current Time: Jun 30, 2016 at 10:40:25 AM

Latest Report: Jun 30, 2016 at 9:53 AM


Visibility: 10 mi

Pressure: 29.88 "Hg

Humidity: 64%

Dew Point: 61 °F

Location of ComptonLocation

Past Weather in Compton — Graph

°F

Compton Temperature Yesterday

Maximum temperature yesterday: 77 °F (at 10:53 AM)
Minimum temperature yesterday: 66 °F (at 11:53 PM)
Average temperature yesterday: 71 °F

High & Low Weather Summary for the Past Weeks

 TemperatureHumidityPressure
High94 °F (Jun 20, 9:53 AM)94% (Jun 22, 1:53 AM)30.04 "Hg (Jun 22, 1:53 AM)
Low60 °F (Jun 16, 4:53 AM)20% (Jun 20, 9:53 AM)29.80 "Hg (Jun 20, 5:53 PM)
Average71 °F67%29.92 "Hg
* Reported Jun 15 8:53 AM — Jun 30 8:53 AM, Compton, Weather by CustomWeather, © 2016

Note: Actual official high and low records may vary slightly from our data, if they occured in-between our weather recording intervals... More about our weather records

Advertising

Compton Weather History for the Previous 24 Hours

Scroll right to see more
 ConditionsComfort  
Time TempWeatherWind HumidityBarometerVisibility
8:53 AM
Thu, Jun 30
71 °FScattered clouds.3 mph71%29.88 "Hg6 mi
7:53 AM70 °FHaze.3 mph73%29.88 "Hg6 mi
6:53 AM68 °FOvercast.3 mph78%29.87 "Hg8 mi
6:04 AM68 °FOvercast.3 mph78%29.86 "Hg8 mi
4:53 AM68 °FPassing clouds.3 mph78%29.85 "Hg10 mi
3:53 AM68 °FOvercast.7 mph82%29.85 "Hg10 mi
2:53 AM68 °FOvercast.3 mph82%29.85 "Hg7 mi
1:53 AM67 °FOvercast.No wind81%29.86 "Hg10 mi
12:53 AM67 °FClear.No wind81%29.87 "Hg9 mi
11:53 PM
Wed, Jun 29
66 °FPassing clouds.No wind87%29.87 "Hg8 mi
10:53 PM67 °FPassing clouds.3 mph85%29.87 "Hg8 mi
9:53 PM67 °FPassing clouds.3 mph85%29.87 "Hg9 mi
8:53 PM68 °FPassing clouds.6 mph84%29.85 "Hg9 mi
7:53 PM68 °FSunny.7 mph82%29.84 "Hg10 mi
6:53 PM71 °FSunny.10 mph73%29.84 "Hg10 mi
5:53 PM73 °FSunny.9 mph69%29.84 "Hg10 mi
4:53 PM75 °FSunny.13 mph62%29.85 "Hg10 mi
3:53 PM75 °FSunny.13 mph62%29.86 "Hg10 mi
2:53 PM75 °FSunny.14 mph62%29.88 "Hg10 mi
1:53 PM76 °FSunny.13 mph64%29.89 "Hg10 mi
12:53 PM76 °FSunny.9 mph64%29.90 "Hg5 mi
11:53 AM76 °FSunny.12 mph64%29.91 "Hg8 mi
10:53 AM77 °FSunny.6 mph64%29.91 "Hg5 mi
Weather by CustomWeather, © 2016

See weather overviewHow to use our weather pages